Home   Weather   Mississauga   Past weeks

Flag for Canada Past Weather in Mississauga, Ontario, Canada — Yesterday and Last 2 Weeks

Now
23 °F

Light snow. Overcast.


Feels Like: 23 °F
Forecast: 20 / 29 °F
Wind: 2 mph from Southwest

Location: Toronto Pearson International Airport

Current Time: Dec 10, 2016 at 7:51:19 am

Latest Report: Dec 10, 2016 at 7:00 am


Visibility: 15 mi

Pressure: 30.36 "Hg

Humidity: 74%

Dew Point: 16 °F

Location of MississaugaLocation

Past Weather in Mississauga — Graph

°F

Mississauga Temperature Yesterday

Maximum temperature yesterday: 30 °F (at 1:00 pm)
Minimum temperature yesterday: 21 °F (at 5:00 am)
Average temperature yesterday: 24 °F

High & Low Weather Summary for the Past Weeks

 TemperatureHumidityPressure
High57 °F (Nov 29, 1:00 pm)100% (Nov 25, 6:00 am)30.36 "Hg (Nov 25, 6:00 am)
Low19 °F (Dec 10, 1:00 am)45% (Dec 3, 2:00 pm)29.43 "Hg (Nov 30, 10:00 pm)
Average38 °F77%29.97 "Hg
* Reported Nov 25 6:00 am — Dec 10 6:00 am, Mississauga, Weather by CustomWeather, © 2016

Note: Actual official high and low records may vary slightly from our data, if they occured in-between our weather recording intervals... More about our weather records

Advertising

Mississauga Weather History for the Previous 24 Hours

Scroll right to see more
 ConditionsComfort  
Time TempWeatherWind HumidityBarometerVisibility
6:00 am
Sat, Dec 10
21 °FLight snow. Overcast.5 mph80%30.35 "Hg15 mi
5:00 am21 °FOvercast.3 mph80%30.35 "Hg15 mi
4:00 am21 °FMostly cloudy.2 mph74%30.34 "Hg15 mi
3:00 am21 °FMostly cloudy.3 mph74%30.35 "Hg15 mi
2:00 am19 °FPassing clouds.2 mph79%30.35 "Hg15 mi
1:00 am19 °FPassing clouds.No wind79%30.35 "Hg15 mi
12:00 am21 °FPassing clouds.No wind74%30.35 "Hg15 mi
11:00 pm
Fri, Dec 9
21 °FPassing clouds.No wind74%30.35 "Hg15 mi
10:00 pm21 °FPassing clouds.5 mph74%30.35 "Hg15 mi
9:00 pm21 °FPassing clouds.No wind80%30.35 "Hg15 mi
8:00 pm23 °FPassing clouds.7 mph74%30.36 "Hg15 mi
7:00 pm23 °FPassing clouds.9 mph74%30.35 "Hg15 mi
6:00 pm23 °FPassing clouds.8 mph74%30.33 "Hg15 mi
5:00 pm27 °FPartly cloudy.9 mph64%30.31 "Hg15 mi
4:00 pm28 °FPartly sunny.18 mph47%30.29 "Hg15 mi
3:00 pm28 °FBroken clouds.14 mph51%30.27 "Hg15 mi
2:00 pm28 °FBroken clouds.21 mph51%30.25 "Hg15 mi
1:00 pm30 °FBroken clouds.22 mph47%30.24 "Hg15 mi
12:00 pm28 °FBroken clouds.9 mph51%30.26 "Hg15 mi
11:00 am27 °FScattered clouds.9 mph64%30.28 "Hg15 mi
10:00 am23 °FScattered clouds.3 mph74%30.27 "Hg15 mi
9:00 am21 °FLight snow. Scattered clouds.9 mph80%30.25 "Hg6 mi
8:00 am21 °FLight snow. Partly sunny.9 mph80%30.24 "Hg6 mi
7:47 am21 °FLight snow. Broken clouds.10 mph80%30.23 "Hg6 mi
7:00 am21 °FPassing clouds.7 mph68%30.20 "Hg15 mi
Weather by CustomWeather, © 2016

See weather overviewHow to use our weather pages